www.pogodaiklimat.ru

Погода и климат >> Архив погоды >> Россия >> Чукотка >> Островное


АРХИВ ПОГОДЫ в Островном

Время (UTC), дата Ветер
(напр.,м/с)
 
Видим.   Явления Облачность Т
(С)
Тd
(С)
f
(%)
Тe
(С)
Тes
(С)
Комфортность P
(гПа)
Po
(гПа)
Тmin
(С)
Tmax
(С)
R
(мм)
R24
(мм)
S
(см)
06 17.05 СЗ 2
{4}
20 км {ливн. осадки} 9/8 300 м
[Cb cap Ac trans]
+3.8 +3.6 99 +1 +1 1009.9 998.2
09 17.05 СЗ 5
{9}
4000 м слаб. ливневой снег 10/9 300 м
[Cb cap Ac und]
+0.1 -0.2 98 -6 -6 1011.6 999.7 +5.3 4
12 17.05 З 5
{11}
10 км слаб. ливневой снег 10/9 300 м
[Cb cap Ac und]
-2.8 -3.8 93 -10 -10 1013.8 1001.8
15 17.05 З 5
{9}
20 км {ливн. осадки} 10/8 600 м
[Cb cap Ac und]
-4.2 -5.4 91 -11 -11 1015.3 1003.2
18 17.05 СЗ 4
{9}
20 км {ливн. осадки} 10/8 600 м
[Cb cap Ac und]
-4.9 -5.5 96 -11 -11 1016.5 1004.4
21 17.05 З 4
{8}
20 км 10/8 300 м
[Cb cap Ac und]
-4.3 -6.2 87 -11 -10 1017.5 1005.4 -5.1 0.3
00 18.05 СЗ 4
{8}
20 км слаб. ливневой снег 10/9 300 м
[Cb cap Ac und]
-3.6 -5.4 87 -10 -10 1017.9 1005.8
03 18.05 З 4
{7}
20 км слаб. ливневой снег 10/9 300 м
[Cb cap Ac und]
-2.6 -5.2 82 -9 -8 1018.3 1006.3
06 18.05 З 4
{7}
20 км слаб. ливневой снег 10/9 600 м
[Cb cap Ac As]
-1.9 -5.4 77 -8 -8 1018.6 1006.6
09 18.05 З 3
{7}
20 км слаб. ливневой снег 10/8 600 м
[Sc Ac As]
-2.5 -5.4 80 -8 -8 1019.0 1007.0 -1.7 0.4
12 18.05 З 3
{6}
20 км слаб. ливневой снег 10/8 600 м
[Cb cap Ac As]
-4.1 -7.1 80 -9 -9 1020.1 1007.9
15 18.05 СЗ 4
{7}
50 км {ливн. осадки} 10/8 600 м
[Cb cap Ac As]
-6.6 -8.6 86 -13 -13 1021.0 1008.7
18 18.05 СЗ 3
{7}
20 км слаб. ливневой снег 10/8 600 м
[Cb cap Ac As]
-7.2 -9.3 85 -13 -13 1021.2 1008.9
21 18.05 СЗ 2
{6}
20 км слаб. ливневой снег 10/8 600 м
[Cb cap Ac As]
-6.0 -9.1 79 -10 -10 1020.9 1008.6 -7.3 0.0
00 19.05 С 1
{4}
50 км {ливн. осадки} 9/8 600 м
[Cb cap Ac trans]
-3.2 -8.7 66 -5 -4 1019.2 1007.2
03 19.05 ЮВ 1
{5}
50 км 8/5 600 м
[Cu Sc Ac trans Ci fib]
+0.1 -8.8 51 -1 +3 1017.4 1005.4
06 19.05 С 2
{5}
50 км 6/1 600 м
[Cu hum Ac trans Ci fib]
+1.8 -8.5 46 -1 +2 1015.1 1003.2
09 19.05 В 2
{5}
50 км 6/1 600 м
[Sc Ac trans Ci fib]
+1.6 -7.9 49 -1 -1 1013.2 1001.4 +2.4 0.0
12 19.05 В 2
{5}
50 км 8/1 600 м
[Sc Ac trans Ci fib]
-0.1 -6.6 62 -3 -3 1012.7 1000.8
15 19.05 В 1
{6}
50 км 8/3 600 м
[Sc Ac trans Ci fib]
-1.6 -6.1 71 -3 -3 1012.2 1000.2
18 19.05 ЮВ 3
{5}
50 км 10/5 600 м
[Cb cap Ac und]
-0.9 -7.8 59 -5 -5 1011.1 999.2
21 19.05 В 3
{7}
50 км 9/5 600 м
[Cb cap Ac trans Ci fib]
+3.1 -6.5 49 -0 +1 1010.2 998.5 -1.9
00 20.05 В 3
{7}
50 км 10/8 600 м
[Cb cap Ac As]
+5.7 -4.9 46 +3 +4 1009.4 997.8
03 20.05 В 4
{7}
50 км 10/8 600 м
[Cb cap Ac As]
+6.9 -2.4 52 +4 +4 1009.4 997.8
06 20.05 ЮВ 3
{7}
50 км 10/8 600 м
[Cb cap Ac As]
+7.3 -1.7 53 +5 +5 1009.6 998.0
09 20.05 ЮВ 3
{7}
50 км 9/8 600 м
[Sc Ac trans]
+6.5 -1.6 56 +4 +4 1011.0 999.4 +7.4
12 20.05 В 3
{7}
50 км 10/8 600 м
[Cb cap Ac As]
+4.1 -1.1 69 +1 +1 1013.0 1001.3
15 20.05 В 4
{5}
50 км 10/8 600 м
[Cb cap Ac As]
+3.3 -1.4 71 -1 -1 1014.8 1003.0
18 20.05 З 3
{6}
50 км 10/6 600 м
[Cb cap Ac As]
+4.1 -1.1 69 +1 +1 1016.2 1004.4
21 20.05 З 5
{9}
20 км слаб. ливневой снег 10/8 600 м
[Cb cap Ac As]
+0.3 -2.1 84 -6 -5 1018.3 1006.3 +0.2 0.0
00 21.05 СЗ 5
{11}
20 км слаб. ливневой снег 10/8 600 м
[Cb cap Ac As]
+0.1 -3.3 78 -6 -6 1020.1 1008.1
03 21.05 СЗ 5
{11}
50 км {ливн. осадки} 10/6 600 м
[Cb cap Ac As]
+3.4 -3.0 63 -1 -1 1021.0 1009.1
06 21.05 СЗ 5
{9}
50 км {ливн. осадки} 10/8 600 м
[Cb cap Ac As]
+1.3 -3.9 68 -4 -4 1022.2 1010.3
09 21.05 З 2
{9}
50 км 10/6 600 м
[Cb cap Ac As]
0.0 -5.2 68 -3 -3 1023.7 1011.7 +3.7 0.0
12 21.05 СВ 2
{6}
50 км 3/3 600 м
[Sc]
-2.5 -5.4 80 -6 -6 1024.5 1012.4
15 21.05 З 2
{5}
50 км ясно -4.6 -7.0 83 -9 -9 1025.3 1013.0
18 21.05 штиль 0
{3}
50 км ясно -2.0 -7.0 69 -3 -1 1025.3 1013.1
21 21.05 З 2
{5}
50 км 1/1 600 м
[Sc]
+1.9 -7.4 50 -1 +4 1025.1 1013.1 -4.6
00 22.05 З 2
{6}
50 км ясно +4.5 -8.8 37 +3 +13 опасность
простуды
1024.5 1012.6
03 22.05 З 2
{6}
50 км ясно +6.8 -9.5 30 +6 +15 опасность
простуды
1023.2 1011.5
06 22.05 Ю 2
{6}
50 км ясно +7.7 -9.8 28 +7 +11 1022.3 1010.6
09 22.05 ЮЗ 2
{4}
50 км ясно +6.1 -8.8 33 +5 +5 1022.3 1010.5 +8.3
12 22.05 Ю 2
{5}
50 км ясно +1.0 -6.6 57 -2 -2 1021.9 1010.0
15 22.05 ЮВ 1
{4}
50 км ясно -2.9 -6.0 79 -5 -5 1021.0 1008.9
18 22.05 В 2
{5}
50 км ясно +1.8 -4.7 62 -1 0 1019.6 1007.7
21 22.05 ЮВ 5
{9}
50 км ясно +6.8 -4.8 43 +3 +6 1016.1 1004.5 -3.1
00 23.05 ЮВ 4
{9}
50 км 6/0
[Ci fib]
+11.6 -3.6 34 +10 +16 1012.5 1001.1
03 23.05 ЮВ 4
{8}
50 км 10/0
[Ci fib]
+14.0 -1.4 35 +13 +18 1009.1 997.8
06 23.05 В 5
{9}
50 км 10/4 600 м
[Sc Ac trans Ci fib]
+12.8 0.0 41 +11 +12 1007.7 996.4
09 23.05 ЮВ 4
{9}
50 км 9/6 600 м
[Sc Ac trans]
+10.3 +1.1 53 +8 +8 1007.0 995.7 +14.4
12 23.05 В 5
{8}
20 км слаб. ливневой дождь 10/8 600 м
[Cb cap Ac As]
+7.8 +2.5 69 +4 +4 1007.1 995.6
15 23.05 В 5
{8}
50 км {ливн. осадки} 10/8 600 м
[Cb cap Ac As]
+6.9 +2.3 72 +3 +3 1006.3 994.8
18 23.05 ЮВ 5
{10}
50 км в посл. час ливневой дождь 10/8 600 м
[Cb cap Ac As]
+6.8 +3.5 79 +3 +3 1006.0 994.5
21 23.05 В 5
{10}
50 км {ливн. осадки} 10/8 600 м
[Cb cap Ac As]
+9.5 +4.1 69 +6 +7 1005.6 994.2 +6.6 0.0
00 24.05 ЮВ 4
{8}
50 км 10/8 600 м
[Cb cap Ac und]
+11.4 +4.0 60 +9 +10 1004.7 993.4
03 24.05 В 4
{8}
50 км 10/8 600 м
[Cb cap Ac und]
+13.4 +4.0 53 +12 +12 1003.6 992.4

 

Местоположение метеостанции Островное (Чукотка, Россия): широта 68.12 долгота 164.10 высота над уровнем моря 94 м.

В архиве по умолчанию представлена погода в Островном за последнюю неделю. Архивные данные за месяц целиком и за предыдущие месяцы, начиная с января 2011 года, Вы можете получить, выбрав интересующий диапазон дат из раскрывающегося списка и нажав кнопку "Ввод!".


*Определитесь, кто Вы:
робот инопланетянин человек

Внимание! Время в таблицах - всемирное. Для получения местного времени необходимо прибавить поправку, которая равна 12 ч.

Смотрите также архив погоды в соседних городах и на ближайших метеорологических станциях:

Погода в Билибино (Чукотка, Россия) (96 км)
Погода в Анюйске (Чукотка, Россия) (110 км)
Погода в Константиновской (Чукотка, Россия) (124 км)
Погода в Черском (Якутия, Россия) (133 км)
Погода в Баимке (Чукотка, Россия) (177 км)
Погода в Раучуе (Чукотка, Россия) (181 км)
Погода в Бухте Амбарчик (Чукотка, Россия) (182 км)
Погода в Илирнее (Чукотка, Россия) (187 км)
Погода в Колымской (Якутия, Россия) (235 км)
Погода на Айон Острове (Чукотка, Россия) (252 км)

Пояснения к столбцам:

Ветер - указаны скорость ветра в м/с - средняя за 10 мин, порывы в срок и между сроками (в фигурных скобках) и направление, откуда дует ветер: С - северный, СВ - северо-восточный, В - восточный, ЮВ - юго-восточный, Ю - южный, ЮЗ - юго-западный, З - западный, СЗ - северо-западный.
Видимость - горизонтальная дальность видимости в метрах или километрах. При видимости от 1 до 10 км при отсутствии осадков обычно наблюдается дымка, при ухудшении видимости до 1 км и менее - туман. В сухую погоду видимость может ухудшаться дымом, пылью или мглою.
Явления - указаны атмосферные явления, наблюдавшиеся в срок или в последний час перед сроком; фигурными скобками обозначены явления, наблюдавшиеся между сроками (за 1-3 часа до срока); квадратными скобками обозначены град или гололедные отложения с указанием их диаметра в мм.
Облачность - указаны через наклонную черту общая и нижняя облачность в баллах и высота нижней границы облаков в метрах; квадратными скобками обозначены формы облаков: Ci - перистые, Cs - перисто-слоистые, Cc - перисто-кучевые, Ac - высококучевые, As - высокослоистые, Sc - слоисто-кучевые, Ns - слоисто-дождевые, Cu - кучевые, Cb - кучево-дождевые. Подробнее классификацию облаков см. в Атласе облаков (PDF).
T - Температура воздуха - температура, измеренная на высоте 2 м над землей.
Td - Температура точки росы - температура, при понижении до которой содержащийся в воздухе водяной пар достигнет насыщения.
f - Относительная влажность воздуха - влажноcть воздуха, измеренная на высоте 2 м над землей.
Te - Эффективная температура - температура, которую ощущает одетый по сезону человек в тени. Характеристика душности погоды. При расчете учитывается влияние влажности воздуха и скорости ветра на теплоощущения человека.
Tes - Эффективная температура на солнце - температура, которую ощущает человек, с поправкой на солнечный нагрев. Характеристика знойности погоды. Зависит от высоты солнца над горизонтом, облачности и скорости ветра. Ночью, в пасмурную погоду, а также при ветре 12 м/с и более поправка равна нулю.
P - Атмосферное давление - приведенное к уровню моря атмосферное давление.
Po - Атмосферное давление - измеренное на уровне метеостанции атмосферное давление.
Tmin - Минимальная температура - минимум температуры воздуха на высоте 2 м над землей.
Tmax - Максимальная температура - максимум температуры воздуха на высоте 2 м над землей.
R - Количество осадков - Количество выпавших осадков за период времени, мм. При наведении курсора мыши на число - период времени, за который выпало указанное количество осадков.
R24 - Количество осадков - Количество выпавших осадков за 24 часа, мм.
S - Снежный покров - Высота снежного покрова, см. При наведении курсора мыши на число - состояние снежного покрова и степень покрытия местности в баллах.